Regional Weather Roundup
Issued by NWS Northern Indiana

Home | Current Version | Previous Version | Graphics & Text | Print | Product List | Glossary On
Versions: 1 2 3 4 5 6 7 8 9 10 11 12 13 14 15 16 17 18 19 20 21 22 23 24 25 26 27 28 29 30 31 32 33 34 35 36 37 38 39 40 41 42 43 44 45 46 47 48 49 50
000
ASUS43 KIWX 281710
RWRIWX

KIWX WEATHER ROUNDUP
NATIONAL WEATHER SERVICE NORTHERN INDIANA
100 PM EDT THU AUG 28 2014

NOTE: "FAIR" INDICATES FEW OR NO CLOUDS BELOW 12,000 FEET WITH NO
SIGNIFICANT WEATHER AND/OR OBSTRUCTIONS TO VISIBILITY.

* THESE STATIONS ARE NOT UNDER NWS QUALITY CONTROL. THEY ALSO MAY NOT
  REPORT WEATHER SUCH AS PRECIPITATION OR FOG.

INZ001>027-281800-
NORTHERN INDIANA

CITY           SKY/WX    TMP DP  RH WIND       PRES   REMARKS
GARY*          MOSUNNY   75  59  57 NE7       30.13S
VALPARAISO     SUNNY     76  62  62 VRB6      30.13S
MICHIGAN CITY* MOSUNNY   73  59  60 CALM      30.12F
LAPORTE*       SUNNY     74  60  62 E7        30.13F
KNOX*          SUNNY     75  60  60 SE5       30.11F
SOUTH BEND     SUNNY     77  59  53 E8        30.13F
GOSHEN         PTSUNNY   76  62  62 E5        30.13S
MONTICELLO*    PTSUNNY   76  66  71 SE3       30.11S
LOGANSPORT*    SUNNY     77  61  57 E7        30.12S
ROCHESTER*     MOSUNNY   81  64  57 S7        30.13S
WARSAW*        MOSUNNY   73  63  68 E6        30.13S
ANGOLA*        MOSUNNY   73  61  64 SE6       30.14F
FORT WAYNE     MOSUNNY   75  63  66 E5        30.13F
HUNTINGTON*    PTSUNNY   74  64  71 E3        30.13S
PERU/GRISSOM   SUNNY     77  66  69 E5        30.11S
MARION*        MOSUNNY   77  62  59 S6        30.12F

$$
INZ028>050-281800-
CENTRAL INDIANA

CITY           SKY/WX    TMP DP  RH WIND       PRES   REMARKS
LAFAYETTE      PTSUNNY   76  65  68 E6        30.10S
KOKOMO*        SUNNY     75  64  69 S5        30.11S
MUNCIE*          N/A     76  64  66 MISG      30.12F
INDIANAPOLIS   PTSUNNY   77  66  68 E7        30.08F

$$
MIZ043>046-050>051-056>058-064>065-071>073-077>080-281800-
SOUTHWEST LOWER MICHIGAN

CITY           SKY/WX    TMP DP  RH WIND       PRES   REMARKS
BATTLE CREEK   PTSUNNY   70  57  63 E7        30.16F
BENTON HARBOR  SUNNY     74  59  59 E8        30.13F
COLDWATER*     PTSUNNY   71  60  67 E3        30.15F
HILLSDALE*     MOSUNNY   72  58  62 NE3       30.16F
HOLLAND        SUNNY     73  55  53 E10       30.16F
GRAND RAPIDS   MOSUNNY   69  53  56 E9        30.18S
KALAMAZOO      CLOUDY    69  59  70 VRB5      30.16F
STURGIS*       PTSUNNY   72  63  73 E3        30.14S
THREE RIVERS*  CLOUDY    70  61  72 MISG      30.15F

$$
OHZ001>008-015>018-024>025-281800-
NORTHWEST OHIO

CITY           SKY/WX    TMP DP  RH WIND       PRES   REMARKS
WAUSEON*       CLOUDY    72  59  64 VRB6      30.15F
DEFIANCE       PTSUNNY   76  61  59 NE6       30.15S
FINDLAY        PTSUNNY   75  60  59 E6        30.14S
TOLEDO EXPRESS MOSUNNY   71  57  61 VRB3      30.15S
TOLEDO METCALF CLOUDY    72  57  59 E9        30.17S
LIMA           PTSUNNY   74  61  63 NE5       30.14F

$$
&&



USA.gov is the U.S. government's official web portal to all federal, state and local government web resources and services.